QPF
0.00 0.01 0.01 0.01 0.01 0.00 0.00 0.00 0.00 0.01 0.01 0.01 0.01 0.02 0.03 0.04 0.04 0.03 0.02 0.01 0.01 0.01 0.01 0.01 0.01 0.02 0.01 0.01 0.02 0.02 0.03 0.05 0.08 0.09 0.06 0.05 0.04 0.04 0.05 0.03 0.02 0.01 0.01 0.02
0.01 0.01 0.01 0.01 0.01 0.00 0.01 0.01 0.01 0.01 0.01 0.01 0.01 0.02 0.03 0.05 0.05 0.04 0.03 0.02 0.01 0.01 0.01 0.01 0.02 0.03 0.02 0.01 0.02 0.02 0.03 0.04 0.06 0.07 0.06 0.05 0.03 0.03 0.03 0.02 0.01 0.01 0.01 0.01
0.01 0.01 0.01 0.02 0.01 0.01 0.01 0.01 0.01 0.01 0.01 0.01 0.01 0.02 0.05 0.06 0.04 0.03 0.02 0.02 0.02 0.01 0.01 0.01 0.02 0.02 0.02 0.02 0.02 0.03 0.04 0.06 0.08 0.08 0.05 0.03 0.03 0.02 0.02 0.01 0.01 0.01 0.01 0.01
0.01 0.01 0.02 0.02 0.02 0.02 0.02 0.03 0.08 0.05 0.02 0.01 0.02 0.04 0.08 0.08 0.04 0.03 0.03 0.02 0.02 0.02 0.01 0.01 0.01 0.01 0.02 0.02 0.03 0.04 0.04 0.05 0.05 0.05 0.03 0.02 0.02 0.03 0.03 0.03 0.02 0.01 0.01 0.02
0.01 0.01 0.01 0.02 0.01 0.01 0.02 0.04 0.13 0.12 0.08 0.04 0.03 0.07 0.10 0.07 0.04 0.03 0.03 0.03 0.02 0.02 0.02 0.02 0.01 0.01 0.01 0.02 0.03 0.03 0.03 0.04 0.03 0.04 0.04 0.03 0.02 0.03 0.03 0.04 0.04 0.04 0.03 0.04
0.01 0.02 0.01 0.01 0.01 0.01 0.01 0.04 0.06 0.11 0.14 0.09 0.07 0.11 0.11 0.07 0.05 0.04 0.04 0.03 0.02 0.02 0.02 0.02 0.02 0.01 0.01 0.01 0.02 0.02 0.03 0.03 0.03 0.03 0.04 0.04 0.04 0.04 0.04 0.05 0.05 0.05 0.04 0.04
0.02 0.01 0.01 0.00 0.00 0.01 0.02 0.05 0.07 0.12 0.16 0.12 0.11 0.07 0.06 0.05 0.05 0.04 0.04 0.04 0.04 0.03 0.03 0.03 0.03 0.02 0.01 0.02 0.02 0.03 0.04 0.04 0.04 0.04 0.04 0.03 0.03 0.03 0.03 0.04 0.03 0.03 0.02 0.02
0.01 0.01 0.01 0.00 0.01 0.01 0.04 0.06 0.11 0.14 0.12 0.17 0.13 0.06 0.04 0.03 0.03 0.03 0.03 0.03 0.05 0.05 0.05 0.05 0.05 0.03 0.02 0.01 0.02 0.02 0.03 0.04 0.04 0.04 0.05 0.05 0.03 0.02 0.02 0.02 0.02 0.02 0.02 0.02
0.01 0.01 0.01 0.01 0.01 0.01 0.03 0.05 0.10 0.12 0.09 0.15 0.11 0.07 0.06 0.03 0.02 0.02 0.03 0.05 0.05 0.06 0.07 0.07 0.06 0.05 0.04 0.03 0.02 0.02 0.02 0.02 0.03 0.03 0.03 0.04 0.03 0.02 0.01 0.01 0.01 0.01 0.02 0.02
0.00 0.00 0.00 0.00 0.00 0.01 0.01 0.02 0.05 0.05 0.08 0.10 0.10 0.08 0.05 0.03 0.02 0.01 0.02 0.04 0.06 0.08 0.07 0.05 0.04 0.05 0.07 0.06 0.03 0.02 0.02 0.03 0.03 0.04 0.03 0.04 0.03 0.03 0.02 0.02 0.01 0.01 0.01 0.02
0.01 0.01 0.01 0.02 0.02 0.01 0.01 0.01 0.02 0.03 0.04 0.05 0.05 0.05 0.03 0.03 0.02 0.01 0.02 0.03 0.03 0.05 0.08 0.10 0.10 0.08 0.06 0.06 0.04 0.02 0.02 0.02 0.02 0.04 0.04 0.05 0.05 0.04 0.04 0.03 0.02 0.02 0.02 0.03
0.03 0.05 0.05 0.05 0.05 0.03 0.02 0.01 0.01 0.02 0.03 0.02 0.02 0.02 0.02 0.03 0.03 0.03 0.02 0.02 0.03 0.04 0.07 0.10 0.12 0.10 0.07 0.05 0.04 0.04 0.03 0.03 0.04 0.08 0.07 0.05 0.05 0.06 0.06 0.05 0.04 0.04 0.04 0.04
0.03 0.04 0.06 0.05 0.03 0.03 0.02 0.01 0.01 0.01 0.02 0.01 0.01 0.01 0.01 0.01 0.02 0.03 0.04 0.05 0.05 0.05 0.07 0.08 0.08 0.07 0.05 0.04 0.04 0.04 0.06 0.06 0.05 0.07 0.08 0.06 0.05 0.04 0.05 0.05 0.04 0.04 0.05 0.05
0.02 0.02 0.06 0.05 0.04 0.04 0.03 0.02 0.02 0.02 0.01 0.01 0.00 0.00 0.00 0.00 0.01 0.01 0.03 0.05 0.06 0.07 0.07 0.06 0.04 0.03 0.03 0.04 0.05 0.05 0.06 0.08 0.09 0.08 0.09 0.07 0.07 0.06 0.05 0.04 0.04 0.04 0.04 0.04
0.04 0.03 0.04 0.04 0.04 0.04 0.04 0.03 0.02 0.02 0.03 0.02 0.01 0.00 0.00 0.00 0.00 0.01 0.02 0.03 0.04 0.05 0.05 0.05 0.04 0.05 0.04 0.06 0.07 0.07 0.07 0.08 0.10 0.10 0.10 0.11 0.10 0.08 0.07 0.07 0.06 0.05 0.04 0.03
0.03 0.02 0.02 0.02 0.02 0.03 0.03 0.02 0.02 0.02 0.02 0.02 0.01 0.00 0.00 0.00 0.01 0.01 0.01 0.01 0.02 0.03 0.06 0.09 0.10 0.09 0.09 0.08 0.10 0.12 0.13 0.13 0.13 0.12 0.14 0.13 0.12 0.11 0.10 0.10 0.09 0.07 0.05 0.04
0.04 0.03 0.02 0.02 0.02 0.02 0.01 0.01 0.01 0.01 0.01 0.01 0.00 0.00 0.01 0.01 0.02 0.02 0.01 0.01 0.02 0.04 0.08 0.13 0.17 0.17 0.14 0.11 0.10 0.08 0.06 0.05 0.06 0.07 0.08 0.10 0.07 0.07 0.08 0.08 0.08 0.06 0.05 0.04
0.03 0.03 0.02 0.02 0.02 0.02 0.01 0.01 0.00 0.00 0.01 0.01 0.01 0.01 0.02 0.02 0.02 0.02 0.02 0.02 0.02 0.03 0.05 0.06 0.08 0.09 0.09 0.08 0.06 0.04 0.04 0.03 0.04 0.05 0.05 0.05 0.05 0.04 0.04 0.04 0.05 0.05 0.06 0.05
0.02 0.02 0.02 0.02 0.02 0.02 0.02 0.01 0.01 0.01 0.01 0.01 0.02 0.02 0.03 0.03 0.03 0.03 0.04 0.03 0.03 0.03 0.03 0.03 0.04 0.03 0.04 0.04 0.04 0.04 0.04 0.04 0.04 0.04 0.04 0.04 0.04 0.04 0.04 0.03 0.04 0.05 0.07 0.07
0.02 0.02 0.02 0.01 0.01 0.01 0.02 0.01 0.01 0.01 0.01 0.02 0.04 0.04 0.05 0.06 0.06 0.06 0.06 0.06 0.06 0.06 0.06 0.04 0.04 0.03 0.03 0.04 0.04 0.04 0.04 0.04 0.03 0.04 0.05 0.05 0.04 0.04 0.05 0.05 0.07 0.07 0.08 0.09
0.03 0.04 0.03 0.03 0.03 0.02 0.01 0.01 0.01 0.01 0.01 0.02 0.03 0.04 0.04 0.07 0.08 0.07 0.06 0.06 0.05 0.05 0.04 0.04 0.03 0.03 0.03 0.04 0.04 0.05 0.04 0.05 0.05 0.05 0.06 0.07 0.05 0.05 0.06 0.08 0.08 0.07 0.08 0.09
0.03 0.03 0.03 0.02 0.02 0.02 0.02 0.02 0.01 0.01 0.02 0.02 0.04 0.04 0.05 0.06 0.07 0.07 0.06 0.05 0.05 0.05 0.03 0.03 0.03 0.04 0.04 0.04 0.04 0.07 0.05 0.05 0.05 0.04 0.05 0.06 0.06 0.07 0.07 0.08 0.09 0.08 0.09 0.09
0.04 0.03 0.03 0.04 0.04 0.03 0.03 0.03 0.03 0.03 0.02 0.03 0.03 0.03 0.04 0.05 0.05 0.04 0.04 0.05 0.05 0.05 0.04 0.05 0.05 0.04 0.04 0.04 0.04 0.04 0.04 0.06 0.05 0.04 0.05 0.05 0.06 0.06 0.06 0.07 0.07 0.07 0.09 0.10
0.03 0.03 0.03 0.03 0.04 0.06 0.07 0.07 0.06 0.05 0.04 0.02 0.03 0.03 0.03 0.03 0.03 0.03 0.03 0.04 0.05 0.05 0.04 0.04 0.04 0.03 0.03 0.03 0.03 0.03 0.04 0.05 0.04 0.04 0.06 0.07 0.07 0.07 0.07 0.07 0.06 0.06 0.07 0.08
0.02 0.02 0.02 0.02 0.02 0.03 0.04 0.05 0.06 0.06 0.04 0.04 0.04 0.03 0.02 0.02 0.03 0.03 0.03 0.03 0.03 0.03 0.03 0.03 0.03 0.02 0.02 0.02 0.02 0.03 0.03 0.02 0.03 0.04 0.05 0.05 0.06 0.07 0.07 0.06 0.05 0.05 0.06 0.06
0.02 0.02 0.02 0.02 0.02 0.02 0.02 0.03 0.05 0.05 0.05 0.05 0.05 0.03 0.02 0.02 0.03 0.03 0.03 0.03 0.03 0.03 0.03 0.03 0.02 0.02 0.02 0.02 0.02 0.02 0.02 0.02 0.02 0.03 0.04 0.04 0.03 0.03 0.03 0.04 0.04 0.05 0.06 0.06
0.02 0.02 0.02 0.02 0.02 0.02 0.02 0.02 0.02 0.03 0.03 0.04 0.04 0.03 0.02 0.02 0.03 0.03 0.03 0.02 0.02 0.02 0.02 0.02 0.03 0.02 0.03 0.03 0.03 0.02 0.02 0.02 0.02 0.02 0.02 0.02 0.02 0.02 0.01 0.01 0.02 0.03 0.04 0.06
MSLP
1011.22 1011.59 1012.04 1012.54 1013.02 1013.42 1013.65 1013.66 1013.41 1012.90 1012.20 1011.37 1010.53 1009.78 1009.21 1008.89 1008.80 1008.93 1009.21 1009.56 1009.87 1010.09 1010.17 1010.11 1009.95 1009.74 1009.54 1009.42 1009.44 1009.59 1009.87 1010.25 1010.68 1011.09 1011.46 1011.73 1011.92 1012.04 1012.12 1012.20 1012.31 1012.49 1012.73 1013.04
1012.21 1012.55 1012.89 1013.24 1013.55 1013.77 1013.87 1013.79 1013.52 1013.08 1012.50 1011.85 1011.19 1010.61 1010.16 1009.88 1009.77 1009.80 1009.91 1010.05 1010.13 1010.13 1010.02 1009.81 1009.52 1009.21 1008.94 1008.76 1008.71 1008.80 1009.02 1009.33 1009.70 1010.07 1010.41 1010.69 1010.91 1011.08 1011.22 1011.37 1011.55 1011.79 1012.08 1012.43
1013.24 1013.54 1013.80 1014.02 1014.19 1014.28 1014.26 1014.13 1013.86 1013.48 1013.02 1012.51 1012.00 1011.54 1011.18 1010.92 1010.76 1010.67 1010.62 1010.57 1010.46 1010.27 1010.00 1009.65 1009.26 1008.88 1008.54 1008.31 1008.20 1008.23 1008.37 1008.61 1008.92 1009.24 1009.55 1009.83 1010.07 1010.28 1010.48 1010.69 1010.92 1011.19 1011.50 1011.85
1014.21 1014.46 1014.65 1014.77 1014.84 1014.82 1014.74 1014.57 1014.32 1014.00 1013.62 1013.22 1012.82 1012.45 1012.13 1011.86 1011.64 1011.45 1011.26 1011.05 1010.79 1010.46 1010.08 1009.65 1009.20 1008.78 1008.42 1008.15 1008.00 1007.97 1008.05 1008.22 1008.45 1008.72 1009.00 1009.27 1009.52 1009.76 1009.99 1010.22 1010.47 1010.75 1011.05 1011.37
1014.99 1015.20 1015.33 1015.38 1015.36 1015.29 1015.16 1014.98 1014.75 1014.48 1014.17 1013.86 1013.53 1013.21 1012.91 1012.62 1012.34 1012.06 1011.77 1011.45 1011.09 1010.69 1010.25 1009.80 1009.35 1008.93 1008.57 1008.30 1008.13 1008.05 1008.08 1008.19 1008.36 1008.58 1008.81 1009.06 1009.31 1009.55 1009.78 1010.02 1010.26 1010.51 1010.76 1011.01
1015.50 1015.65 1015.73 1015.73 1015.66 1015.55 1015.41 1015.23 1015.03 1014.81 1014.57 1014.31 1014.03 1013.74 1013.44 1013.13 1012.81 1012.47 1012.11 1011.74 1011.34 1010.92 1010.49 1010.07 1009.66 1009.29 1008.97 1008.72 1008.55 1008.46 1008.45 1008.51 1008.62 1008.78 1008.98 1009.19 1009.41 1009.62 1009.84 1010.05 1010.25 1010.44 1010.62 1010.79
1015.68 1015.78 1015.81 1015.77 1015.68 1015.56 1015.43 1015.27 1015.11 1014.93 1014.73 1014.52 1014.27 1014.00 1013.70 1013.38 1013.03 1012.67 1012.29 1011.91 1011.53 1011.15 1010.78 1010.42 1010.09 1009.80 1009.55 1009.34 1009.19 1009.10 1009.06 1009.08 1009.15 1009.26 1009.40 1009.56 1009.73 1009.91 1010.07 1010.22 1010.36 1010.48 1010.57 1010.65
1015.56 1015.61 1015.60 1015.53 1015.44 1015.33 1015.21 1015.09 1014.97 1014.83 1014.68 1014.49 1014.28 1014.02 1013.73 1013.41 1013.06 1012.70 1012.34 1011.99 1011.65 1011.34 1011.05 1010.80 1010.57 1010.36 1010.19 1010.04 1009.93 1009.84 1009.80 1009.78 1009.81 1009.86 1009.95 1010.05 1010.15 1010.26 1010.36 1010.43 1010.49 1010.52 1010.53 1010.54
1015.21 1015.21 1015.17 1015.10 1015.02 1014.93 1014.85 1014.76 1014.68 1014.58 1014.46 1014.30 1014.11 1013.86 1013.58 1013.27 1012.94 1012.60 1012.28 1011.98 1011.71 1011.49 1011.29 1011.13 1011.00 1010.89 1010.79 1010.70 1010.62 1010.56 1010.50 1010.46 1010.45 1010.45 1010.47 1010.50 1010.53 1010.56 1010.57 1010.56 1010.53 1010.48 1010.42 1010.36
1014.73 1014.71 1014.66 1014.59 1014.53 1014.47 1014.42 1014.38 1014.33 1014.26 1014.17 1014.03 1013.85 1013.62 1013.35 1013.05 1012.74 1012.44 1012.16 1011.92 1011.72 1011.57 1011.46 1011.38 1011.33 1011.29 1011.26 1011.22 1011.17 1011.11 1011.05 1010.99 1010.94 1010.89 1010.84 1010.80 1010.75 1010.69 1010.61 1010.51 1010.40 1010.28 1010.16 1010.07
1014.25 1014.21 1014.17 1014.12 1014.08 1014.06 1014.05 1014.04 1014.01 1013.97 1013.89 1013.76 1013.59 1013.37 1013.11 1012.83 1012.54 1012.26 1012.02 1011.82 1011.68 1011.58 1011.53 1011.52 1011.52 1011.53 1011.53 1011.52 1011.49 1011.45 1011.38 1011.30 1011.21 1011.12 1011.01 1010.89 1010.76 1010.61 1010.45 1010.26 1010.08 1009.89 1009.74 1009.63
1013.82 1013.79 1013.77 1013.76 1013.76 1013.78 1013.80 1013.81 1013.81 1013.77 1013.69 1013.57 1013.39 1013.17 1012.92 1012.64 1012.37 1012.12 1011.90 1011.73 1011.61 1011.54 1011.52 1011.53 1011.55 1011.58 1011.60 1011.60 1011.58 1011.54 1011.47 1011.37 1011.26 1011.13 1010.97 1010.79 1010.58 1010.36 1010.11 1009.85 1009.60 1009.37 1009.18 1009.06
1013.47 1013.48 1013.50 1013.53 1013.58 1013.63 1013.68 1013.72 1013.73 1013.69 1013.61 1013.48 1013.29 1013.07 1012.81 1012.54 1012.27 1012.03 1011.82 1011.66 1011.54 1011.48 1011.45 1011.45 1011.47 1011.49 1011.50 1011.50 1011.48 1011.44 1011.37 1011.27 1011.14 1010.98 1010.79 1010.56 1010.30 1010.00 1009.69 1009.37 1009.05 1008.78 1008.57 1008.43
1013.20 1013.26 1013.33 1013.42 1013.51 1013.61 1013.69 1013.74 1013.75 1013.71 1013.62 1013.48 1013.29 1013.05 1012.79 1012.52 1012.26 1012.01 1011.80 1011.63 1011.50 1011.41 1011.36 1011.33 1011.32 1011.31 1011.30 1011.29 1011.26 1011.22 1011.15 1011.05 1010.93 1010.76 1010.55 1010.29 1009.99 1009.64 1009.27 1008.90 1008.53 1008.21 1007.97 1007.81
1012.95 1013.07 1013.21 1013.35 1013.50 1013.64 1013.74 1013.81 1013.83 1013.79 1013.69 1013.54 1013.35 1013.11 1012.85 1012.58 1012.32 1012.07 1011.85 1011.66 1011.50 1011.38 1011.28 1011.21 1011.15 1011.10 1011.07 1011.03 1011.00 1010.95 1010.89 1010.81 1010.69 1010.53 1010.32 1010.05 1009.73 1009.35 1008.94 1008.52 1008.11 1007.74 1007.45 1007.26
1012.70 1012.88 1013.08 1013.29 1013.49 1013.66 1013.80 1013.88 1013.91 1013.87 1013.78 1013.63 1013.43 1013.21 1012.96 1012.70 1012.44 1012.19 1011.96 1011.75 1011.56 1011.39 1011.25 1011.12 1011.01 1010.91 1010.84 1010.78 1010.73 1010.68 1010.64 1010.57 1010.48 1010.33 1010.13 1009.87 1009.54 1009.14 1008.70 1008.25 1007.79 1007.38 1007.04 1006.80
1012.43 1012.67 1012.93 1013.19 1013.43 1013.64 1013.80 1013.90 1013.94 1013.91 1013.83 1013.69 1013.51 1013.30 1013.07 1012.83 1012.59 1012.35 1012.11 1011.88 1011.66 1011.45 1011.25 1011.06 1010.89 1010.74 1010.62 1010.53 1010.47 1010.42 1010.38 1010.33 1010.26 1010.14 1009.97 1009.71 1009.39 1008.99 1008.53 1008.05 1007.56 1007.10 1006.71 1006.40
1012.15 1012.44 1012.74 1013.05 1013.32 1013.56 1013.74 1013.85 1013.90 1013.89 1013.81 1013.70 1013.54 1013.36 1013.16 1012.95 1012.73 1012.49 1012.26 1012.01 1011.76 1011.51 1011.25 1011.01 1010.78 1010.58 1010.41 1010.28 1010.19 1010.13 1010.09 1010.05 1010.00 1009.90 1009.75 1009.52 1009.20 1008.81 1008.35 1007.85 1007.34 1006.84 1006.39 1006.01
1011.90 1012.22 1012.55 1012.88 1013.17 1013.41 1013.60 1013.72 1013.77 1013.77 1013.71 1013.61 1013.49 1013.34 1013.17 1012.99 1012.79 1012.58 1012.35 1012.09 1011.81 1011.52 1011.22 1010.92 1010.63 1010.37 1010.14 1009.97 1009.84 1009.76 1009.71 1009.67 1009.63 1009.55 1009.41 1009.20 1008.90 1008.53 1008.08 1007.57 1007.04 1006.52 1006.03 1005.59
1011.72 1012.05 1012.39 1012.71 1012.99 1013.22 1013.39 1013.50 1013.55 1013.54 1013.50 1013.42 1013.32 1013.20 1013.06 1012.91 1012.74 1012.54 1012.31 1012.05 1011.75 1011.42 1011.07 1010.72 1010.37 1010.05 1009.77 1009.55 1009.38 1009.27 1009.19 1009.14 1009.09 1009.02 1008.90 1008.71 1008.43 1008.08 1007.65 1007.16 1006.63 1006.09 1005.58 1005.11
1011.62 1011.94 1012.25 1012.54 1012.79 1012.99 1013.12 1013.20 1013.22 1013.21 1013.16 1013.09 1013.00 1012.90 1012.79 1012.66 1012.51 1012.33 1012.10 1011.83 1011.51 1011.16 1010.77 1010.37 1009.97 1009.60 1009.27 1009.00 1008.78 1008.63 1008.53 1008.46 1008.40 1008.33 1008.22 1008.04 1007.80 1007.47 1007.07 1006.61 1006.10 1005.57 1005.06 1004.58
1011.59 1011.87 1012.14 1012.37 1012.56 1012.70 1012.77 1012.80 1012.79 1012.74 1012.68 1012.60 1012.52 1012.43 1012.34 1012.23 1012.09 1011.91 1011.69 1011.41 1011.08 1010.70 1010.29 1009.85 1009.42 1009.01 1008.64 1008.32 1008.07 1007.89 1007.76 1007.67 1007.60 1007.53 1007.42 1007.27 1007.05 1006.76 1006.40 1005.98 1005.51 1005.02 1004.53 1004.07
1011.59 1011.81 1012.01 1012.17 1012.28 1012.33 1012.34 1012.31 1012.24 1012.16 1012.07 1011.97 1011.89 1011.80 1011.71 1011.61 1011.47 1011.30 1011.08 1010.80 1010.46 1010.07 1009.65 1009.20 1008.74 1008.31 1007.92 1007.58 1007.31 1007.10 1006.95 1006.85 1006.78 1006.71 1006.62 1006.49 1006.31 1006.06 1005.75 1005.38 1004.97 1004.53 1004.09 1003.66
1011.56 1011.71 1011.82 1011.89 1011.91 1011.88 1011.81 1011.71 1011.59 1011.46 1011.34 1011.22 1011.12 1011.03 1010.94 1010.83 1010.70 1010.53 1010.31 1010.04 1009.70 1009.32 1008.89 1008.45 1008.00 1007.57 1007.18 1006.84 1006.57 1006.36 1006.21 1006.11 1006.05 1005.99 1005.92 1005.82 1005.68 1005.49 1005.23 1004.93 1004.58 1004.21 1003.82 1003.45
1011.43 1011.50 1011.53 1011.51 1011.45 1011.33 1011.19 1011.03 1010.85 1010.69 1010.53 1010.40 1010.29 1010.19 1010.09 1009.98 1009.85 1009.68 1009.47 1009.20 1008.88 1008.51 1008.10 1007.68 1007.26 1006.86 1006.49 1006.19 1005.94 1005.76 1005.63 1005.55 1005.51 1005.48 1005.44 1005.38 1005.29 1005.14 1004.95 1004.71 1004.43 1004.13 1003.81 1003.49
1011.17 1011.17 1011.11 1011.01 1010.87 1010.69 1010.49 1010.29 1010.08 1009.89 1009.72 1009.57 1009.45 1009.35 1009.25 1009.13 1009.00 1008.84 1008.63 1008.37 1008.06 1007.72 1007.35 1006.97 1006.60 1006.25 1005.94 1005.69 1005.49 1005.35 1005.27 1005.24 1005.23 1005.24 1005.24 1005.23 1005.18 1005.09 1004.95 1004.77 1004.56 1004.31 1004.05 1003.80
1010.77 1010.69 1010.57 1010.41 1010.21 1009.99 1009.76 1009.53 1009.32 1009.12 1008.96 1008.81 1008.70 1008.59 1008.49 1008.37 1008.24 1008.07 1007.87 1007.63 1007.34 1007.03 1006.71 1006.38 1006.07 1005.79 1005.55 1005.37 1005.24 1005.17 1005.16 1005.18 1005.22 1005.28 1005.33 1005.36 1005.35 1005.31 1005.22 1005.09 1004.93 1004.74 1004.53 1004.31
Thickness
5770 5781 5784 5782 5785 5788 5780 5773 5762 5767 5771 5784 5795 5799 5804 5807 5808 5808 5808 5809 5808 5808 5807 5806 5804 5802 5801 5798 5795 5791 5786 5781 5779 5778 5776 5773 5771 5768 5765 5763 5761 5759 5756 5753
5760 5775 5778 5775 5782 5784 5781 5780 5774 5774 5773 5791 5797 5799 5799 5799 5800 5797 5799 5802 5803 5802 5801 5800 5800 5798 5796 5793 5791 5787 5782 5778 5776 5773 5771 5769 5766 5764 5762 5759 5757 5755 5752 5749
5736 5757 5761 5749 5768 5774 5773 5776 5774 5765 5772 5785 5786 5789 5789 5791 5792 5790 5793 5796 5795 5795 5794 5794 5794 5794 5792 5790 5787 5782 5777 5774 5772 5769 5765 5763 5762 5759 5757 5754 5752 5749 5747 5744
5723 5735 5720 5744 5773 5777 5771 5771 5774 5773 5776 5780 5782 5784 5786 5788 5787 5787 5789 5789 5788 5789 5788 5789 5790 5789 5788 5785 5781 5776 5772 5769 5767 5764 5760 5758 5756 5753 5751 5750 5747 5744 5742 5740
5708 5709 5719 5745 5763 5765 5757 5751 5767 5767 5769 5771 5776 5775 5773 5780 5781 5781 5782 5781 5781 5783 5783 5782 5782 5782 5780 5776 5773 5770 5767 5764 5762 5759 5755 5752 5749 5748 5746 5744 5742 5740 5738 5734
5703 5703 5701 5727 5756 5768 5756 5734 5756 5760 5759 5762 5764 5748 5752 5769 5772 5773 5773 5774 5775 5776 5775 5773 5773 5774 5771 5767 5765 5762 5761 5759 5757 5754 5751 5747 5744 5742 5741 5738 5735 5732 5730 5729
5695 5694 5705 5734 5752 5756 5725 5725 5749 5754 5754 5755 5752 5751 5756 5761 5762 5763 5764 5765 5765 5765 5763 5762 5762 5762 5758 5756 5755 5756 5755 5753 5751 5748 5745 5743 5739 5737 5734 5731 5728 5725 5724 5723
5687 5684 5695 5733 5738 5728 5725 5739 5745 5746 5748 5749 5749 5750 5750 5751 5751 5752 5752 5753 5754 5753 5751 5752 5752 5749 5746 5745 5748 5748 5747 5744 5742 5740 5738 5737 5732 5729 5727 5723 5719 5718 5716 5715
5690 5692 5711 5725 5727 5731 5733 5732 5734 5736 5739 5740 5739 5738 5739 5739 5739 5740 5741 5741 5742 5741 5740 5741 5740 5739 5734 5735 5737 5737 5736 5734 5733 5732 5730 5728 5725 5721 5718 5716 5712 5710 5709 5707
5688 5696 5707 5715 5720 5724 5726 5725 5727 5729 5730 5730 5728 5728 5728 5727 5727 5727 5728 5729 5729 5728 5726 5726 5727 5728 5727 5727 5728 5726 5724 5724 5724 5722 5721 5719 5717 5714 5711 5708 5705 5703 5701 5700
5678 5688 5695 5702 5707 5711 5714 5716 5717 5718 5720 5719 5718 5717 5716 5714 5715 5715 5716 5717 5717 5715 5714 5715 5717 5717 5717 5717 5717 5714 5713 5713 5713 5713 5711 5709 5707 5706 5704 5703 5701 5697 5696 5693
5668 5679 5680 5686 5697 5703 5702 5702 5704 5705 5706 5707 5708 5706 5706 5704 5704 5705 5704 5704 5704 5704 5703 5704 5705 5706 5706 5707 5705 5703 5701 5701 5701 5701 5701 5699 5697 5695 5695 5694 5694 5692 5691 5688
5676 5681 5682 5685 5689 5693 5693 5694 5695 5695 5694 5693 5695 5697 5696 5693 5693 5693 5693 5693 5692 5692 5692 5693 5694 5694 5695 5697 5696 5694 5692 5691 5690 5690 5689 5689 5688 5685 5683 5683 5683 5683 5682 5680
5675 5676 5673 5675 5677 5682 5683 5685 5685 5684 5684 5683 5683 5684 5684 5683 5682 5681 5681 5681 5681 5681 5681 5681 5682 5683 5684 5685 5685 5684 5683 5682 5681 5680 5679 5678 5678 5677 5675 5673 5671 5671 5671 5670
5667 5669 5667 5669 5670 5672 5673 5673 5671 5670 5669 5670 5671 5671 5671 5671 5670 5670 5671 5671 5671 5670 5669 5670 5671 5672 5674 5674 5674 5673 5672 5672 5671 5670 5670 5669 5668 5667 5665 5664 5663 5662 5661 5660
5657 5659 5660 5659 5659 5660 5661 5660 5657 5657 5658 5659 5660 5660 5661 5661 5660 5660 5661 5661 5659 5658 5658 5659 5661 5662 5663 5663 5664 5663 5663 5665 5663 5661 5660 5659 5659 5658 5656 5656 5655 5654 5653 5652
5647 5646 5647 5646 5647 5649 5649 5649 5649 5648 5649 5650 5651 5652 5652 5651 5650 5650 5650 5650 5650 5650 5650 5650 5651 5653 5654 5654 5654 5654 5654 5655 5656 5654 5652 5651 5651 5650 5650 5649 5647 5646 5646 5646
5645 5644 5643 5641 5640 5640 5640 5641 5642 5642 5641 5643 5643 5643 5642 5640 5640 5640 5641 5641 5640 5640 5640 5641 5642 5643 5644 5646 5645 5645 5645 5645 5645 5644 5644 5644 5644 5643 5643 5642 5641 5639 5639 5638
5639 5638 5637 5637 5636 5634 5632 5632 5633 5634 5635 5635 5634 5633 5633 5633 5632 5632 5632 5631 5630 5629 5631 5634 5635 5635 5635 5637 5637 5636 5636 5637 5637 5637 5637 5637 5637 5636 5636 5635 5634 5633 5632 5630
5632 5631 5630 5629 5628 5626 5625 5626 5626 5626 5627 5627 5626 5625 5624 5624 5624 5624 5622 5621 5621 5622 5625 5626 5626 5625 5626 5627 5628 5628 5628 5628 5629 5629 5629 5629 5629 5628 5628 5627 5627 5626 5625 5623
5623 5623 5622 5620 5619 5619 5618 5618 5618 5617 5618 5619 5618 5617 5617 5616 5616 5615 5613 5612 5614 5616 5617 5618 5617 5617 5617 5618 5619 5618 5619 5619 5619 5619 5620 5620 5620 5619 5619 5619 5618 5618 5616 5615
5614 5614 5614 5613 5612 5610 5611 5611 5611 5611 5611 5611 5611 5611 5609 5608 5608 5607 5606 5606 5607 5608 5608 5608 5608 5609 5609 5610 5609 5609 5609 5610 5609 5610 5610 5610 5610 5610 5610 5610 5609 5608 5607 5605
5606 5606 5606 5605 5605 5604 5604 5604 5604 5604 5604 5603 5603 5602 5601 5601 5600 5599 5598 5600 5601 5601 5600 5600 5600 5601 5601 5600 5600 5601 5601 5600 5600 5600 5601 5601 5601 5600 5600 5600 5599 5598 5596 5595
5599 5598 5599 5599 5599 5598 5597 5597 5597 5598 5598 5598 5597 5597 5596 5594 5594 5594 5595 5595 5595 5594 5593 5592 5593 5593 5593 5592 5592 5592 5591 5591 5591 5592 5592 5592 5591 5590 5590 5589 5588 5588 5586 5585
5593 5592 5592 5592 5591 5591 5591 5591 5591 5591 5592 5591 5591 5592 5592 5591 5589 5589 5589 5589 5589 5588 5587 5586 5586 5586 5585 5584 5584 5583 5583 5583 5583 5583 5583 5582 5581 5580 5579 5578 5578 5577 5575 5574
5587 5587 5587 5588 5587 5587 5587 5586 5585 5586 5586 5585 5585 5586 5586 5586 5585 5585 5583 5583 5582 5581 5580 5580 5579 5579 5578 5577 5577 5577 5576 5576 5576 5575 5574 5573 5572 5571 5570 5568 5567 5566 5564 5563
5583 5583 5583 5583 5584 5584 5584 5583 5582 5581 5581 5580 5579 5579 5580 5579 5579 5578 5577 5576 5575 5574 5573 5573 5572 5571 5571 5570 5570 5570 5570 5570 5569 5568 5566 5565 5563 5561 5559 5558 5557 5555 5553 5552